Other Public Products
Issued by NWS Charleston, SC

Current Version | Previous Version | Text Only | Print | Product List | Glossary Off
Versions: 1 2 3 4 5 6 7 8 9 10 11 12 13 14 15 16 17 18 19 20 21 22 23 24 25 26 27 28 29 30 31 32 33 34 35 36 37 38 39 40 41 42 43 44 45 46 47 48 49 50
589 FPUS82 KCHS 250912 OPUCHS TEST...KCHS/KSAV Gateway Observations...TEST National Weather Service Charleston SC 500 AM EDT WED APR 25 2018 NOTE: "fair" indicates few or no clouds below 12,000 feet with no significant weather and/or obstructions to visibility. SCZ050-WAZ558-NCZ071-TXZ119-213-PAZ071-DCZ001-FLZ074-172-MI076- NYZ176-178-MAZ016-IL014-TNZ027-NJZ106-GAZ044-MD014-251000- ...Gateway Observations for Charleston International... CITY SKY/WX TMP DP RH WIND PRES REMARKS Chas Airport FAIR 61 56 83 SW7 29.80S Seattle PTCLDY 55 36 48 N7 30.07S Charlotte CLOUDY 58 57 97 W5 29.76R Dallas DFW CLOUDY 65 55 70 N6 30.04R Dallas Love CLOUDY 67 55 65 CALM 30.04R Philladelphia CLOUDY 55 54 96 E12 29.89F FOG Wash National LGT RAIN 57 54 89 N8 29.82F FOG Baltimore LGT RAIN 56 56 100 NE7 29.82F FOG Miami MOCLDY 69 65 86 NW7 29.95S Detroit LGT RAIN 51 48 89 N6 29.91S VSB 3/4 Newark LGT RAIN 54 54 100 E9 29.98F FOG Laguardia CLOUDY 55 53 93 E13 29.99F J F K LGT RAIN 53 53 100 E14 30.00F Boston Logan MOCLDY 47 41 80 NE7 30.14F Ft. Lauderdale MOCLDY 71 64 78 NW6 29.94R Chicago O`Hare CLOUDY 46 29 51 N21 30.05R Chicago Midway CLOUDY 45 32 60 N16 30.04S Houston Bush FAIR 62 61 96 CALM 30.05R Houston Hobby FAIR 64 63 96 CALM 30.04S Nashville CLOUDY 57 52 83 N7 29.95R Atlanta FAIR 56 55 97 W8 29.88S $$ GAZ044-118-TXZ119-213-NCZ071-DCZ001-MDZ014-506-PAZ021-071-NJZ106- NYZ176-178-MAZ106-OHZ011-021-055-MIZ076-KYZ091-ILZ014-INZ047- MNZ060-ONZ431-251000- ...Gateway Observations for Savannah International... CITY SKY/WX TMP DP RH WIND PRES REMARKS Savannah Arpt FAIR 60 56 86 W8 29.84S Atlanta FAIR 56 55 97 W8 29.88S Charlotte CLOUDY 58 57 97 W5 29.76R Dallas DFW CLOUDY 65 55 70 N6 30.04R Houston Bush FAIR 62 61 96 CALM 30.05R Wash National LGT RAIN 57 54 89 N8 29.82F FOG Wash Dulles LGT RAIN 53 53 100 N7 29.82F FOG Baltimore LGT RAIN 56 56 100 NE7 29.82F FOG Philadelphia CLOUDY 55 54 96 E12 29.89F FOG Newark LGT RAIN 54 54 100 E9 29.98F FOG Laguardia CLOUDY 55 53 93 E13 29.99F J F K LGT RAIN 53 53 100 E14 30.00F Boston MOCLDY 47 41 80 NE7 30.14F Pittsburg CLOUDY 50 49 96 NE3 29.84F Akron LGT RAIN 51 48 89 NE3 29.86S FOG Cleveland LGT RAIN 51 50 96 NE5 29.89F FOG Cincinnati CLOUDY 53 51 93 NW8 29.88S FOG Columbus CLOUDY 52 52 100 CALM 29.85F FOG Detroit LGT RAIN 51 48 89 N6 29.91S VSB 3/4 Chicago O`Hare CLOUDY 46 29 51 N21 30.05R Minneapolis FAIR 39 27 62 N8 30.26R WCI 33 Indianapolis FAIR 48 48 100 NW6 29.93R FOG Toronto Canada LGT RAIN 48 46 93 E9 29.92F $$

USA.gov is the U.S. government's official web portal to all federal, state and local government web resources and services.